Simultaneous Nadir Overpasses (SNOs) Predictions

Prediction of SNOs between METOP-B and NOAA-19 Satellite Orbit:

Table of predicted SNOs for the next 14.0 days since TLE Epoch: 3/22/2019
Index Date (METOP-B) Time (METOP-B) Lat,Lon (METOP-B) SZA (METOP-B ) Date (NOAA-19) Time (NOAA-19) Lat,Lon (NOAA-19) SZA (NOAA-19 ) Distance(km) Time Diff (sec)
1 03/28/2019 12:41:10 79.10, 4.38 76.35 03/28/2019 12:39:55 79.14, 4.14 76.37 6.89 75
2 03/28/2019 13:31:51 -79.10, 171.70 103.67 03/28/2019 13:30:52 -79.09, 171.85 103.69 3.34 59
3 03/28/2019 14:22:32 79.09, -21.06 76.30 03/28/2019 14:21:55 79.11, -21.11 76.32 3.30 37
4 03/28/2019 15:13:13 -79.09, 146.27 103.72 03/28/2019 15:12:53 -79.09, 146.33 103.71 1.41 20
5 03/28/2019 16:03:54 79.07, -46.49 76.26 03/28/2019 16:03:55 79.09, -46.37 76.28 2.87 1
6 03/28/2019 16:54:35 -79.07, 120.83 103.76 03/28/2019 16:54:54 -79.10, 120.80 103.74 2.64 19
7 03/28/2019 17:45:16 79.06, -71.93 76.21 03/28/2019 17:45:56 79.09, -71.89 76.25 3.22 40
8 03/28/2019 18:35:57 -79.06, 95.40 103.81 03/28/2019 18:36:54 -79.07, 95.54 103.78 3.03 57




NCC Satellite Simultaneous Nadir Overpasses (SNOs) Prediction Service
